Time,TemperatureF,DewpointF,PressureIn,WindDirection,WindDirectionDegrees,WindSpeedMPH,WindSpeedGustMPH,Humidity,HourlyPrecipIn,Conditions,Clouds,dailyrainin,SoftwareType,DateUTC
2013-02-27 00:00:00,57.3,51.5,29.86,SSE,167,4.0,4.0,81,0.00,,,0.00,Wunderground v.1.15,2013-02-27 06:00:00,
2013-02-27 00:10:00,57.3,51.5,29.87,South,179,3.0,3.0,81,0.00,,,0.00,Wunderground v.1.15,2013-02-27 06:10:00,
2013-02-27 00:15:00,57.3,51.5,29.87,SSE,159,3.0,4.0,81,0.00,,,0.00,Wunderground v.1.15,2013-02-27 06:15:00,
2013-02-27 00:20:00,57.2,51.4,29.87,South,188,3.0,3.0,81,0.00,,,0.00,Wunderground v.1.15,2013-02-27 06:20:00,
2013-02-27 00:25:00,57.3,51.9,29.87,SSW,193,3.0,3.0,82,0.00,,,0.00,Wunderground v.1.15,2013-02-27 06:25:00,
2013-02-27 00:30:00,57.2,51.8,29.87,SSE,156,3.0,3.0,82,0.00,,,0.00,Wunderground v.1.15,2013-02-27 06:30:00,
2013-02-27 00:40:00,57.0,51.6,29.87,South,179,3.0,3.0,82,0.00,,,0.00,Wunderground v.1.15,2013-02-27 06:40:00,
2013-02-27 00:45:00,57.0,51.9,29.87,SSW,207,4.0,4.0,83,0.00,,,0.00,Wunderground v.1.15,2013-02-27 06:45:00,
2013-02-27 00:50:00,56.9,51.8,29.86,SE,127,5.0,5.0,83,0.00,,,0.00,Wunderground v.1.15,2013-02-27 06:50:00,
2013-02-27 00:55:00,56.9,51.8,29.87,SSW,210,4.0,5.0,83,0.00,,,0.00,Wunderground v.1.15,2013-02-27 06:55:00,
2013-02-27 01:00:00,57.0,51.9,29.87,WSW,246,3.0,3.0,83,0.00,,,0.00,Wunderground v.1.15,2013-02-27 07:00:00,
2013-02-27 01:10:00,56.9,51.8,29.87,SSE,159,3.0,3.0,83,0.00,,,0.00,Wunderground v.1.15,2013-02-27 07:10:00,
2013-02-27 01:15:00,56.7,51.9,29.87,SSE,162,2.0,3.0,84,0.00,,,0.00,Wunderground v.1.15,2013-02-27 07:15:00,
2013-02-27 01:20:00,56.5,51.7,29.87,SSW,211,2.0,2.0,84,0.00,,,0.00,Wunderground v.1.15,2013-02-27 07:20:00,
2013-02-27 01:25:00,56.2,51.4,29.87,SW,228,2.0,2.0,84,0.00,,,0.00,Wunderground v.1.15,2013-02-27 07:25:00,
2013-02-27 01:30:00,56.0,51.6,29.86,WSW,246,2.0,2.0,85,0.00,,,0.00,Wunderground v.1.15,2013-02-27 07:30:00,
2013-02-27 01:35:00,55.8,51.4,29.87,South,188,2.0,3.0,85,0.00,,,0.00,Wunderground v.1.15,2013-02-27 07:35:00,
2013-02-27 01:45:00,55.3,51.2,29.87,SSW,210,2.0,6.0,86,0.00,,,0.00,Wunderground v.1.15,2013-02-27 07:45:00,
2013-02-27 01:50:00,55.1,51.0,29.87,SSW,208,2.0,2.0,86,0.00,,,0.00,Wunderground v.1.15,2013-02-27 07:50:00,
2013-02-27 01:55:00,54.9,51.1,29.87,South,179,2.0,3.0,87,0.00,,,0.00,Wunderground v.1.15,2013-02-27 07:55:00,
2013-02-27 02:00:00,54.8,51.3,29.87,WSW,240,2.0,2.0,88,0.00,,,0.00,Wunderground v.1.15,2013-02-27 08:00:00,
2013-02-27 02:10:00,54.6,51.1,29.87,SSE,160,2.0,2.0,88,0.00,,,0.00,Wunderground v.1.15,2013-02-27 08:10:00,
2013-02-27 02:15:00,54.7,51.2,29.87,South,188,3.0,3.0,88,0.00,,,0.00,Wunderground v.1.15,2013-02-27 08:15:00,
2013-02-27 02:20:00,54.8,51.0,29.86,SW,215,3.0,3.0,87,0.00,,,0.00,Wunderground v.1.15,2013-02-27 08:20:00,
2013-02-27 02:25:00,54.8,50.7,29.86,South,190,3.0,3.0,86,0.00,,,0.00,Wunderground v.1.15,2013-02-27 08:25:00,
2013-02-27 02:30:00,54.7,50.6,29.86,SW,217,2.0,2.0,86,0.00,,,0.00,Wunderground v.1.15,2013-02-27 08:30:00,
2013-02-27 02:35:00,54.5,50.4,29.86,West,280,2.0,2.0,86,0.00,,,0.00,Wunderground v.1.15,2013-02-27 08:35:00,
2013-02-27 02:40:00,54.4,50.6,29.86,SSW,197,2.0,2.0,87,0.00,,,0.00,Wunderground v.1.15,2013-02-27 08:40:00,
2013-02-27 02:50:00,53.9,49.8,29.86,SW,217,0.0,0.0,86,0.00,,,0.00,Wunderground v.1.15,2013-02-27 08:50:00,
2013-02-27 02:55:00,53.7,49.9,29.87,SSE,165,1.0,1.0,87,0.00,,,0.00,Wunderground v.1.15,2013-02-27 08:55:00,
2013-02-27 03:00:00,53.5,49.7,29.87,South,176,1.0,1.0,87,0.00,,,0.00,Wunderground v.1.15,2013-02-27 09:00:00,
2013-02-27 03:10:00,53.5,50.0,29.86,SSW,193,2.0,2.0,88,0.00,,,0.00,Wunderground v.1.15,2013-02-27 09:10:00,
2013-02-27 03:20:00,53.6,50.1,29.85,WSW,242,2.0,3.0,88,0.00,,,0.00,Wunderground v.1.15,2013-02-27 09:20:00,
2013-02-27 03:25:00,53.6,50.1,29.86,SSW,203,2.0,3.0,88,0.00,,,0.00,Wunderground v.1.15,2013-02-27 09:25:00,
2013-02-27 03:30:00,53.6,50.1,29.86,South,178,2.0,2.0,88,0.00,,,0.00,Wunderground v.1.15,2013-02-27 09:30:00,
2013-02-27 03:35:00,53.6,50.1,29.85,SSE,150,2.0,3.0,88,0.00,,,0.00,Wunderground v.1.15,2013-02-27 09:35:00,
2013-02-27 03:40:00,53.7,50.2,29.86,SW,215,2.0,2.0,88,0.00,,,0.00,Wunderground v.1.15,2013-02-27 09:40:00,
2013-02-27 03:45:00,53.9,50.4,29.85,SW,222,3.0,3.0,88,0.00,,,0.00,Wunderground v.1.15,2013-02-27 09:45:00,
2013-02-27 03:55:00,54.0,50.2,29.85,SSW,197,3.0,3.0,87,0.00,,,0.00,Wunderground v.1.15,2013-02-27 09:55:00,
2013-02-27 04:00:00,54.1,50.3,29.85,South,172,2.0,6.0,87,0.00,,,0.00,Wunderground v.1.15,2013-02-27 10:00:00,
2013-02-27 04:10:00,54.4,50.3,29.85,SE,139,3.0,3.0,86,0.00,,,0.00,Wunderground v.1.15,2013-02-27 10:10:00,
2013-02-27 04:15:00,54.5,50.4,29.85,SSW,198,3.0,3.0,86,0.00,,,0.00,Wunderground v.1.15,2013-02-27 10:15:00,
2013-02-27 04:25:00,54.7,50.6,29.84,SSE,162,3.0,4.0,86,0.00,,,0.00,Wunderground v.1.15,2013-02-27 10:25:00,
2013-02-27 04:30:00,54.9,50.8,29.84,SSE,163,3.0,4.0,86,0.00,,,0.00,Wunderground v.1.15,2013-02-27 10:30:00,
2013-02-27 04:35:00,54.9,50.5,29.84,SSE,153,3.0,4.0,85,0.00,,,0.00,Wunderground v.1.15,2013-02-27 10:35:00,
2013-02-27 04:40:00,54.9,50.5,29.85,South,176,3.0,3.0,85,0.00,,,0.00,Wunderground v.1.15,2013-02-27 10:40:00,
2013-02-27 04:45:00,54.9,50.5,29.85,SSW,195,2.0,3.0,85,0.00,,,0.00,Wunderground v.1.15,2013-02-27 10:45:00,
2013-02-27 04:50:00,54.9,50.5,29.85,SSW,194,1.0,1.0,85,0.00,,,0.00,Wunderground v.1.15,2013-02-27 10:50:00,
2013-02-27 05:00:00,54.7,50.3,29.85,SSE,160,1.0,1.0,85,0.00,,,0.00,Wunderground v.1.15,2013-02-27 11:00:00,
2013-02-27 05:10:00,54.7,50.3,29.86,SE,131,1.0,1.0,85,0.00,,,0.00,Wunderground v.1.15,2013-02-27 11:10:00,
2013-02-27 05:15:00,54.6,50.2,29.86,East,86,0.0,1.0,85,0.00,,,0.00,Wunderground v.1.15,2013-02-27 11:15:00,
2013-02-27 05:20:00,54.4,50.3,29.87,East,86,0.0,0.0,86,0.00,,,0.00,Wunderground v.1.15,2013-02-27 11:20:00,
2013-02-27 05:25:00,54.1,50.0,29.87,East,86,0.0,0.0,86,0.00,,,0.00,Wunderground v.1.15,2013-02-27 11:25:00,
2013-02-27 05:30:00,53.8,50.0,29.86,South,172,0.0,1.0,87,0.00,,,0.00,Wunderground v.1.15,2013-02-27 11:30:00,
2013-02-27 05:35:00,53.7,49.9,29.87,SSE,160,0.0,1.0,87,0.00,,,0.00,Wunderground v.1.15,2013-02-27 11:35:00,
2013-02-27 05:40:00,53.4,49.6,29.87,SSW,200,0.0,0.0,87,0.00,,,0.00,Wunderground v.1.15,2013-02-27 11:40:00,
2013-02-27 05:45:00,53.6,50.4,29.87,South,180,0.0,2.0,89,0.00,,,0.00,Wunderground v.1.15,2013-02-27 11:45:00,
2013-02-27 05:50:00,53.8,50.6,29.87,SW,217,1.0,1.0,89,0.00,,,0.00,Wunderground v.1.15,2013-02-27 11:50:00,
2013-02-27 05:55:00,53.7,50.5,29.88,SW,217,0.0,1.0,89,0.00,,,0.00,Wunderground v.1.15,2013-02-27 11:55:00,
2013-02-27 06:00:00,53.7,50.5,29.87,SW,217,0.0,0.0,89,0.00,,,0.00,Wunderground v.1.15,2013-02-27 12:00:00,
2013-02-27 06:10:00,53.4,50.5,29.87,South,184,0.0,1.0,90,0.00,,,0.00,Wunderground v.1.15,2013-02-27 12:10:00,
2013-02-27 06:15:00,53.4,50.5,29.88,SSE,162,0.0,1.0,90,0.00,,,0.00,Wunderground v.1.15,2013-02-27 12:15:00,
2013-02-27 06:20:00,53.4,50.5,29.88,SSE,162,0.0,0.0,90,0.00,,,0.00,Wunderground v.1.15,2013-02-27 12:20:00,
2013-02-27 06:25:00,53.5,50.9,29.88,SSE,162,0.0,0.0,91,0.00,,,0.00,Wunderground v.1.15,2013-02-27 12:25:00,
2013-02-27 06:30:00,53.7,51.1,29.88,SSE,162,0.0,0.0,91,0.00,,,0.00,Wunderground v.1.15,2013-02-27 12:30:00,
2013-02-27 06:35:00,53.6,50.7,29.88,SSE,162,0.0,0.0,90,0.00,,,0.00,Wunderground v.1.15,2013-02-27 12:35:00,
2013-02-27 06:40:00,53.7,51.1,29.89,SSE,162,0.0,0.0,91,0.00,,,0.00,Wunderground v.1.15,2013-02-27 12:40:00,
2013-02-27 06:45:00,53.7,51.1,29.90,SSE,162,0.0,0.0,91,0.00,,,0.00,Wunderground v.1.15,2013-02-27 12:45:00,
2013-02-27 06:50:00,53.5,50.9,29.90,SSE,162,0.0,0.0,91,0.00,,,0.00,Wunderground v.1.15,2013-02-27 12:50:00,
2013-02-27 06:53:00,53.3,51.0,29.91,N/A,-737280,0.0,-999.0,92,0.00,,,0.00,Wunderground v.1.15,2013-02-27 12:53:00,
2013-02-27 06:55:00,53.3,50.7,29.90,SSE,162,0.0,0.0,91,0.00,,,0.00,Wunderground v.1.15,2013-02-27 12:55:00,
2013-02-27 06:58:00,53.3,51.0,29.91,N/A,-737280,0.0,-999.0,92,0.00,,,0.00,Wunderground v.1.15,2013-02-27 12:58:00,
2013-02-27 07:00:00,53.3,50.7,29.91,SSE,162,0.0,0.0,91,0.00,,,0.00,Wunderground v.1.15,2013-02-27 13:00:00,
2013-02-27 07:03:00,53.3,51.0,29.91,N/A,-737280,0.0,-999.0,92,0.00,,,0.00,Wunderground v.1.15,2013-02-27 13:03:00,
2013-02-27 07:08:00,53.3,51.0,29.91,N/A,-737280,0.0,-999.0,92,0.00,,,0.00,Wunderground v.1.15,2013-02-27 13:08:00,
2013-02-27 07:10:00,53.2,50.6,29.92,SSE,162,0.0,0.0,91,0.00,,,0.00,Wunderground v.1.15,2013-02-27 13:10:00,
2013-02-27 07:13:00,53.3,51.0,29.91,N/A,-737280,0.0,-999.0,92,0.00,,,0.00,Wunderground v.1.15,2013-02-27 13:13:00,
2013-02-27 07:15:00,52.9,50.3,29.92,SSE,162,0.0,0.0,91,0.00,,,0.00,Wunderground v.1.15,2013-02-27 13:15:00,
2013-02-27 07:18:00,54.3,52.0,29.93,N/A,-737280,0.0,-999.0,92,0.00,,,0.00,Wunderground v.1.15,2013-02-27 13:18:00,
2013-02-27 07:20:00,53.3,51.0,29.92,SSE,162,0.0,0.0,92,0.00,,,0.00,Wunderground v.1.15,2013-02-27 13:20:00,
2013-02-27 07:23:00,54.3,52.0,29.93,N/A,-737280,0.0,-999.0,92,0.00,,,0.00,Wunderground v.1.15,2013-02-27 13:23:00,
2013-02-27 07:25:00,53.9,51.6,29.93,SSE,160,0.0,0.0,92,0.00,,,0.00,Wunderground v.1.15,2013-02-27 13:25:00,
2013-02-27 07:28:00,54.3,52.0,29.93,N/A,-737280,0.0,-999.0,92,0.00,,,0.00,Wunderground v.1.15,2013-02-27 13:28:00,
2013-02-27 07:30:00,54.3,52.0,29.93,SSE,162,0.0,0.0,92,0.00,,,0.00,Wunderground v.1.15,2013-02-27 13:30:00,
2013-02-27 07:33:00,54.3,52.0,29.93,N/A,-737280,0.0,-999.0,92,0.00,,,0.00,Wunderground v.1.15,2013-02-27 13:33:00,
2013-02-27 07:35:00,54.7,52.4,29.94,SSE,162,0.0,0.0,92,0.00,,,0.00,Wunderground v.1.15,2013-02-27 13:35:00,
2013-02-27 07:38:00,54.3,52.0,29.93,N/A,-737280,0.0,-999.0,92,0.00,,,0.00,Wunderground v.1.15,2013-02-27 13:38:00,
2013-02-27 07:40:00,55.6,53.6,29.94,SSE,162,0.0,0.0,93,0.00,,,0.00,Wunderground v.1.15,2013-02-27 13:40:00,
2013-02-27 07:43:00,54.3,52.0,29.93,N/A,-737280,0.0,-999.0,92,0.00,,,0.00,Wunderground v.1.15,2013-02-27 13:43:00,
2013-02-27 07:45:00,56.1,53.8,29.95,SSE,162,0.0,0.0,92,0.00,,,0.00,Wunderground v.1.15,2013-02-27 13:45:00,
2013-02-27 07:48:00,58.8,56.2,29.95,N/A,-737280,0.0,-999.0,91,0.00,,,0.00,Wunderground v.1.15,2013-02-27 13:48:00,
2013-02-27 07:53:00,58.8,56.2,29.95,N/A,-737280,0.0,-999.0,91,0.00,,,0.00,Wunderground v.1.15,2013-02-27 13:53:00,
2013-02-27 07:55:00,58.6,56.6,29.95,SSE,161,0.0,0.0,93,0.00,,,0.00,Wunderground v.1.15,2013-02-27 13:55:00,
2013-02-27 07:58:00,58.8,56.2,29.95,N/A,-737280,0.0,-999.0,91,0.00,,,0.00,Wunderground v.1.15,2013-02-27 13:58:00,
2013-02-27 08:00:00,58.8,56.2,29.96,SSE,162,0.0,0.0,91,0.00,,,0.00,Wunderground v.1.15,2013-02-27 14:00:00,
2013-02-27 08:03:00,58.8,56.2,29.95,N/A,-737280,0.0,-999.0,91,0.00,,,0.00,Wunderground v.1.15,2013-02-27 14:03:00,
2013-02-27 08:08:00,58.8,56.2,29.95,N/A,-737280,0.0,-999.0,91,0.00,,,0.00,Wunderground v.1.15,2013-02-27 14:08:00,
2013-02-27 08:10:00,59.9,57.6,29.96,ENE,65,0.0,0.0,92,0.00,,,0.00,Wunderground v.1.15,2013-02-27 14:10:00,
2013-02-27 08:13:00,58.8,56.2,29.95,N/A,-737280,0.0,-999.0,91,0.00,,,0.00,Wunderground v.1.15,2013-02-27 14:13:00,
2013-02-27 08:15:00,60.8,58.2,29.96,ENE,65,0.0,0.0,91,0.00,,,0.00,Wunderground v.1.15,2013-02-27 14:15:00,
2013-02-27 08:18:00,63.1,58.8,29.97,ENE,68,0.0,-999.0,86,0.00,,,0.00,Wunderground v.1.15,2013-02-27 14:18:00,
2013-02-27 08:20:00,61.4,58.1,29.96,ENE,65,0.0,0.0,89,0.00,,,0.00,Wunderground v.1.15,2013-02-27 14:20:00,
2013-02-27 08:23:00,63.1,58.8,29.97,ENE,68,0.0,-999.0,86,0.00,,,0.00,Wunderground v.1.15,2013-02-27 14:23:00,
2013-02-27 08:25:00,62.4,58.5,29.97,ENE,65,0.0,0.0,87,0.00,,,0.00,Wunderground v.1.15,2013-02-27 14:25:00,
2013-02-27 08:28:00,63.1,58.8,29.97,ENE,68,0.0,-999.0,86,0.00,,,0.00,Wunderground v.1.15,2013-02-27 14:28:00,
2013-02-27 08:30:00,63.1,58.8,29.97,ENE,67,0.0,0.0,86,0.00,,,0.00,Wunderground v.1.15,2013-02-27 14:30:00,
2013-02-27 08:33:00,63.1,58.8,29.97,ENE,68,0.0,-999.0,86,0.00,,,0.00,Wunderground v.1.15,2013-02-27 14:33:00,
2013-02-27 08:35:00,63.6,58.3,29.97,ENE,65,0.0,1.0,83,0.00,,,0.00,Wunderground v.1.15,2013-02-27 14:35:00,
2013-02-27 08:38:00,63.1,58.8,29.97,ENE,68,0.0,-999.0,86,0.00,,,0.00,Wunderground v.1.15,2013-02-27 14:38:00,
2013-02-27 08:40:00,63.3,57.7,29.98,ENE,65,1.0,1.0,82,0.00,,,0.00,Wunderground v.1.15,2013-02-27 14:40:00,
2013-02-27 08:43:00,63.1,58.8,29.97,ENE,68,0.0,-999.0,86,0.00,,,0.00,Wunderground v.1.15,2013-02-27 14:43:00,
2013-02-27 08:48:00,63.3,57.0,29.99,NE,45,2.0,-999.0,80,0.00,,,0.00,Wunderground v.1.15,2013-02-27 14:48:00,
2013-02-27 08:50:00,63.2,57.3,29.98,NE,46,2.0,2.0,81,0.00,,,0.00,Wunderground v.1.15,2013-02-27 14:50:00,
2013-02-27 08:53:00,63.3,57.0,29.99,NE,45,2.0,-999.0,80,0.00,,,0.00,Wunderground v.1.15,2013-02-27 14:53:00,
2013-02-27 08:55:00,63.2,57.6,29.99,NE,41,2.0,2.0,82,0.00,,,0.00,Wunderground v.1.15,2013-02-27 14:55:00,
2013-02-27 08:58:00,63.3,57.0,29.99,NE,45,2.0,-999.0,80,0.00,,,0.00,Wunderground v.1.15,2013-02-27 14:58:00,
2013-02-27 09:00:00,63.3,57.0,29.99,NNE,27,2.0,2.0,80,0.00,,,0.00,Wunderground v.1.15,2013-02-27 15:00:00,
2013-02-27 09:03:00,63.3,57.0,29.99,NE,45,2.0,-999.0,80,0.00,,,0.00,Wunderground v.1.15,2013-02-27 15:03:00,
2013-02-27 09:08:00,63.3,57.0,29.99,NE,45,2.0,-999.0,80,0.00,,,0.00,Wunderground v.1.15,2013-02-27 15:08:00,
2013-02-27 09:10:00,64.3,56.9,29.99,NNE,16,1.0,2.0,77,0.00,,,0.00,Wunderground v.1.15,2013-02-27 15:10:00,
2013-02-27 09:13:00,63.3,57.0,29.99,NE,45,2.0,-999.0,80,0.00,,,0.00,Wunderground v.1.15,2013-02-27 15:13:00,
2013-02-27 09:18:00,60.6,51.5,30.02,NW,315,4.0,-999.0,72,0.00,,,0.00,Wunderground v.1.15,2013-02-27 15:18:00,
2013-02-27 09:20:00,61.6,52.1,30.01,WNW,298,6.0,6.0,71,0.00,,,0.00,Wunderground v.1.15,2013-02-27 15:20:00,
2013-02-27 09:23:00,60.6,51.5,30.02,NW,315,4.0,-999.0,72,0.00,,,0.00,Wunderground v.1.15,2013-02-27 15:23:00,
2013-02-27 09:25:00,60.8,52.5,30.02,NNE,32,6.0,6.0,74,0.00,,,0.00,Wunderground v.1.15,2013-02-27 15:25:00,
2013-02-27 09:28:00,60.6,51.5,30.02,NW,315,4.0,-999.0,72,0.00,,,0.00,Wunderground v.1.15,2013-02-27 15:28:00,
2013-02-27 09:30:00,60.6,51.5,30.02,NW,304,5.0,10.0,72,0.00,,,0.00,Wunderground v.1.15,2013-02-27 15:30:00,
2013-02-27 09:33:00,60.6,51.5,30.02,NW,315,4.0,-999.0,72,0.00,,,0.00,Wunderground v.1.15,2013-02-27 15:33:00,
2013-02-27 09:35:00,60.2,51.5,30.02,WNW,298,6.0,10.0,73,0.00,,,0.00,Wunderground v.1.15,2013-02-27 15:35:00,
2013-02-27 09:38:00,60.6,51.5,30.02,NW,315,4.0,-999.0,72,0.00,,,0.00,Wunderground v.1.15,2013-02-27 15:38:00,
2013-02-27 09:40:00,60.5,51.0,30.02,West,274,7.0,7.0,71,0.00,,,0.00,Wunderground v.1.15,2013-02-27 15:40:00,
2013-02-27 09:43:00,60.6,51.5,30.02,NW,315,4.0,-999.0,72,0.00,,,0.00,Wunderground v.1.15,2013-02-27 15:43:00,
2013-02-27 09:45:00,60.9,51.0,30.03,NNW,335,6.0,10.0,70,0.00,,,0.00,Wunderground v.1.15,2013-02-27 15:45:00,
2013-02-27 09:48:00,61.8,51.5,30.03,NW,315,6.0,-999.0,69,0.00,,,0.00,Wunderground v.1.15,2013-02-27 15:48:00,
2013-02-27 09:53:00,61.8,51.5,30.03,NW,315,6.0,-999.0,69,0.00,,,0.00,Wunderground v.1.15,2013-02-27 15:53:00,
2013-02-27 09:55:00,61.2,50.9,30.02,WNW,300,6.0,9.0,69,0.00,,,0.00,Wunderground v.1.15,2013-02-27 15:55:00,
2013-02-27 09:58:00,61.8,51.5,30.03,NW,315,6.0,-999.0,69,0.00,,,0.00,Wunderground v.1.15,2013-02-27 15:58:00,
2013-02-27 10:00:00,61.8,51.5,30.03,WNW,284,6.0,6.0,69,0.00,,,0.00,Wunderground v.1.15,2013-02-27 16:00:00,
2013-02-27 10:03:00,61.8,51.5,30.03,NW,315,6.0,-999.0,69,0.00,,,0.00,Wunderground v.1.15,2013-02-27 16:03:00,
2013-02-27 10:08:00,61.8,51.5,30.03,NW,315,6.0,-999.0,69,0.00,,,0.00,Wunderground v.1.15,2013-02-27 16:08:00,
2013-02-27 10:10:00,63.2,51.6,30.03,NW,321,4.0,4.0,66,0.00,,,0.00,Wunderground v.1.15,2013-02-27 16:10:00,
2013-02-27 10:13:00,61.8,51.5,30.03,NW,315,6.0,-999.0,69,0.00,,,0.00,Wunderground v.1.15,2013-02-27 16:13:00,
2013-02-27 10:15:00,63.5,51.9,30.02,WNW,284,3.0,4.0,66,0.00,,,0.00,Wunderground v.1.15,2013-02-27 16:15:00,
2013-02-27 10:18:00,64.7,52.2,30.03,NW,315,3.0,-999.0,64,0.00,,,0.00,Wunderground v.1.15,2013-02-27 16:18:00,
2013-02-27 10:23:00,64.7,52.2,30.03,NW,315,3.0,-999.0,64,0.00,,,0.00,Wunderground v.1.15,2013-02-27 16:23:00,
2013-02-27 10:28:00,64.7,52.2,30.03,NW,315,3.0,-999.0,64,0.00,,,0.00,Wunderground v.1.15,2013-02-27 16:28:00,
2013-02-27 10:33:00,64.7,52.2,30.03,NW,315,3.0,-999.0,64,0.00,,,0.00,Wunderground v.1.15,2013-02-27 16:33:00,
2013-02-27 10:38:00,64.7,52.2,30.03,NW,315,3.0,-999.0,64,0.00,,,0.00,Wunderground v.1.15,2013-02-27 16:38:00,
2013-02-27 10:43:00,64.7,52.2,30.03,NW,315,3.0,-999.0,64,0.00,,,0.00,Wunderground v.1.15,2013-02-27 16:43:00,
2013-02-27 10:48:00,67.4,54.4,30.02,North,0,2.0,-999.0,63,0.00,,,0.00,Wunderground v.1.15,2013-02-27 16:48:00,
2013-02-27 10:53:00,67.4,54.4,30.02,North,0,2.0,-999.0,63,0.00,,,0.00,Wunderground v.1.15,2013-02-27 16:53:00,
2013-02-27 10:58:00,67.4,54.4,30.02,North,0,2.0,-999.0,63,0.00,,,0.00,Wunderground v.1.15,2013-02-27 16:58:00,
2013-02-27 11:03:00,67.4,54.4,30.02,North,0,2.0,-999.0,63,0.00,,,0.00,Wunderground v.1.15,2013-02-27 17:03:00,
2013-02-27 11:08:00,67.4,54.4,30.02,North,0,2.0,-999.0,63,0.00,,,0.00,Wunderground v.1.15,2013-02-27 17:08:00,
2013-02-27 11:13:00,67.4,54.4,30.02,North,0,2.0,-999.0,63,0.00,,,0.00,Wunderground v.1.15,2013-02-27 17:13:00,
2013-02-27 11:18:00,69.0,53.6,30.02,NE,45,2.0,-999.0,58,0.00,,,0.00,Wunderground v.1.15,2013-02-27 17:18:00,
2013-02-27 11:23:00,69.0,53.6,30.02,NE,45,2.0,-999.0,58,0.00,,,0.00,Wunderground v.1.15,2013-02-27 17:23:00,
2013-02-27 11:28:00,69.0,53.6,30.02,NE,45,2.0,-999.0,58,0.00,,,0.00,Wunderground v.1.15,2013-02-27 17:28:00,
2013-02-27 11:33:00,69.0,53.6,30.02,NE,45,2.0,-999.0,58,0.00,,,0.00,Wunderground v.1.15,2013-02-27 17:33:00,
2013-02-27 11:38:00,69.0,53.6,30.02,NE,45,2.0,-999.0,58,0.00,,,0.00,Wunderground v.1.15,2013-02-27 17:38:00,
2013-02-27 11:43:00,69.0,53.6,30.02,NE,45,2.0,-999.0,58,0.00,,,0.00,Wunderground v.1.15,2013-02-27 17:43:00,
2013-02-27 11:48:00,71.2,52.7,30.01,NW,315,3.0,-999.0,52,0.00,,,0.00,Wunderground v.1.15,2013-02-27 17:48:00,
2013-02-27 11:53:00,71.2,52.7,30.01,NW,315,3.0,-999.0,52,0.00,,,0.00,Wunderground v.1.15,2013-02-27 17:53:00,
2013-02-27 11:58:00,71.2,52.7,30.01,NW,315,3.0,-999.0,52,0.00,,,0.00,Wunderground v.1.15,2013-02-27 17:58:00,
2013-02-27 12:03:00,71.2,52.7,30.01,NW,315,3.0,-999.0,52,0.00,,,0.00,Wunderground v.1.15,2013-02-27 18:03:00,
2013-02-27 12:08:00,71.2,52.7,30.01,NW,315,3.0,-999.0,52,0.00,,,0.00,Wunderground v.1.15,2013-02-27 18:08:00,
2013-02-27 12:13:00,71.2,52.7,30.01,NW,315,3.0,-999.0,52,0.00,,,0.00,Wunderground v.1.15,2013-02-27 18:13:00,
2013-02-27 12:18:00,71.7,49.2,30.01,NW,315,5.0,-999.0,45,0.00,,,0.00,Wunderground v.1.15,2013-02-27 18:18:00,
2013-02-27 12:23:00,71.7,49.2,30.01,NW,315,5.0,-999.0,45,0.00,,,0.00,Wunderground v.1.15,2013-02-27 18:23:00,
2013-02-27 12:28:00,71.7,49.2,30.01,NW,315,5.0,-999.0,45,0.00,,,0.00,Wunderground v.1.15,2013-02-27 18:28:00,
2013-02-27 12:33:00,71.7,49.2,30.01,NW,315,5.0,-999.0,45,0.00,,,0.00,Wunderground v.1.15,2013-02-27 18:33:00,
2013-02-27 12:38:00,71.7,49.2,30.01,NW,315,5.0,-999.0,45,0.00,,,0.00,Wunderground v.1.15,2013-02-27 18:38:00,
2013-02-27 12:43:00,71.7,49.2,30.01,NW,315,5.0,-999.0,45,0.00,,,0.00,Wunderground v.1.15,2013-02-27 18:43:00,
2013-02-27 12:48:00,73.3,48.2,30.00,NW,315,5.0,-999.0,41,0.00,,,0.00,Wunderground v.1.15,2013-02-27 18:48:00,
2013-02-27 12:53:00,73.3,48.2,30.00,NW,315,5.0,-999.0,41,0.00,,,0.00,Wunderground v.1.15,2013-02-27 18:53:00,
2013-02-27 12:58:00,73.3,48.2,30.00,NW,315,5.0,-999.0,41,0.00,,,0.00,Wunderground v.1.15,2013-02-27 18:58:00,
2013-02-27 13:03:00,73.3,48.2,30.00,NW,315,5.0,-999.0,41,0.00,,,0.00,Wunderground v.1.15,2013-02-27 19:03:00,
2013-02-27 13:08:00,73.3,48.2,30.00,NW,315,5.0,-999.0,41,0.00,,,0.00,Wunderground v.1.15,2013-02-27 19:08:00,
2013-02-27 13:13:00,73.3,48.2,30.00,NW,315,5.0,-999.0,41,0.00,,,0.00,Wunderground v.1.15,2013-02-27 19:13:00,
2013-02-27 13:18:00,74.7,46.0,29.99,NNE,23,4.0,-999.0,36,0.00,,,0.00,Wunderground v.1.15,2013-02-27 19:18:00,
2013-02-27 13:23:00,74.7,46.0,29.99,NNE,23,4.0,-999.0,36,0.00,,,0.00,Wunderground v.1.15,2013-02-27 19:23:00,
2013-02-27 13:28:00,74.7,46.0,29.99,NNE,23,4.0,-999.0,36,0.00,,,0.00,Wunderground v.1.15,2013-02-27 19:28:00,
2013-02-27 13:33:00,74.7,46.0,29.99,NNE,23,4.0,-999.0,36,0.00,,,0.00,Wunderground v.1.15,2013-02-27 19:33:00,
2013-02-27 13:38:00,74.7,46.0,29.99,NNE,23,4.0,-999.0,36,0.00,,,0.00,Wunderground v.1.15,2013-02-27 19:38:00,
2013-02-27 13:43:00,74.7,46.0,29.99,NNE,23,4.0,-999.0,36,0.00,,,0.00,Wunderground v.1.15,2013-02-27 19:43:00,
2013-02-27 13:48:00,76.0,40.5,29.99,NNE,23,4.0,-999.0,28,0.00,,,0.00,Wunderground v.1.15,2013-02-27 19:48:00,
2013-02-27 13:53:00,76.0,40.5,29.99,NNE,23,4.0,-999.0,28,0.00,,,0.00,Wunderground v.1.15,2013-02-27 19:53:00,
2013-02-27 13:58:00,76.0,40.5,29.99,NNE,23,4.0,-999.0,28,0.00,,,0.00,Wunderground v.1.15,2013-02-27 19:58:00,
2013-02-27 14:03:00,76.0,40.5,29.99,NNE,23,4.0,-999.0,28,0.00,,,0.00,Wunderground v.1.15,2013-02-27 20:03:00,
2013-02-27 14:08:00,76.0,40.5,29.99,NNE,23,4.0,-999.0,28,0.00,,,0.00,Wunderground v.1.15,2013-02-27 20:08:00,
2013-02-27 14:13:00,76.0,40.5,29.99,NNE,23,4.0,-999.0,28,0.00,,,0.00,Wunderground v.1.15,2013-02-27 20:13:00,
2013-02-27 14:18:00,76.3,29.7,29.99,NNE,23,5.0,-999.0,18,0.00,,,0.00,Wunderground v.1.15,2013-02-27 20:18:00,
2013-02-27 14:23:00,76.3,29.7,29.99,NNE,23,5.0,-999.0,18,0.00,,,0.00,Wunderground v.1.15,2013-02-27 20:23:00,
2013-02-27 14:28:00,76.3,29.7,29.99,NNE,23,5.0,-999.0,18,0.00,,,0.00,Wunderground v.1.15,2013-02-27 20:28:00,
2013-02-27 14:33:00,76.3,29.7,29.99,NNE,23,5.0,-999.0,18,0.00,,,0.00,Wunderground v.1.15,2013-02-27 20:33:00,
2013-02-27 14:38:00,76.3,29.7,29.99,NNE,23,5.0,-999.0,18,0.00,,,0.00,Wunderground v.1.15,2013-02-27 20:38:00,
2013-02-27 14:43:00,76.3,29.7,29.99,NNE,23,5.0,-999.0,18,0.00,,,0.00,Wunderground v.1.15,2013-02-27 20:43:00,
2013-02-27 14:48:00,75.3,31.4,29.99,NNE,23,4.0,-999.0,20,0.00,,,0.00,Wunderground v.1.15,2013-02-27 20:48:00,
2013-02-27 14:53:00,75.3,31.4,29.99,NNE,23,4.0,-999.0,20,0.00,,,0.00,Wunderground v.1.15,2013-02-27 20:53:00,
2013-02-27 14:58:00,75.3,31.4,29.99,NNE,23,4.0,-999.0,20,0.00,,,0.00,Wunderground v.1.15,2013-02-27 20:58:00,
2013-02-27 15:03:00,75.3,31.4,29.99,NNE,23,4.0,-999.0,20,0.00,,,0.00,Wunderground v.1.15,2013-02-27 21:03:00,
2013-02-27 15:08:00,75.3,31.4,29.99,NNE,23,4.0,-999.0,20,0.00,,,0.00,Wunderground v.1.15,2013-02-27 21:08:00,
2013-02-27 15:13:00,75.3,31.4,29.99,NNE,23,4.0,-999.0,20,0.00,,,0.00,Wunderground v.1.15,2013-02-27 21:13:00,
2013-02-27 15:18:00,73.9,34.8,29.99,NNE,23,4.0,-999.0,24,0.00,,,0.00,Wunderground v.1.15,2013-02-27 21:18:00,
2013-02-27 15:23:00,73.9,34.8,29.99,NNE,23,4.0,-999.0,24,0.00,,,0.00,Wunderground v.1.15,2013-02-27 21:23:00,
2013-02-27 15:28:00,73.9,34.8,29.99,NNE,23,4.0,-999.0,24,0.00,,,0.00,Wunderground v.1.15,2013-02-27 21:28:00,
2013-02-27 15:33:00,73.9,34.8,29.99,NNE,23,4.0,-999.0,24,0.00,,,0.00,Wunderground v.1.15,2013-02-27 21:33:00,
2013-02-27 15:38:00,73.9,34.8,29.99,NNE,23,4.0,-999.0,24,0.00,,,0.00,Wunderground v.1.15,2013-02-27 21:38:00,
2013-02-27 15:43:00,73.9,34.8,29.99,NNE,23,4.0,-999.0,24,0.00,,,0.00,Wunderground v.1.15,2013-02-27 21:43:00,
2013-02-27 15:48:00,73.8,33.7,29.99,NNE,23,4.0,-999.0,23,0.00,,,0.00,Wunderground v.1.15,2013-02-27 21:48:00,
2013-02-27 15:53:00,73.8,33.7,29.99,NNE,23,4.0,-999.0,23,0.00,,,0.00,Wunderground v.1.15,2013-02-27 21:53:00,
2013-02-27 15:58:00,73.8,33.7,29.99,NNE,23,4.0,-999.0,23,0.00,,,0.00,Wunderground v.1.15,2013-02-27 21:58:00,
2013-02-27 16:03:00,73.8,33.7,29.99,NNE,23,4.0,-999.0,23,0.00,,,0.00,Wunderground v.1.15,2013-02-27 22:03:00,
2013-02-27 16:08:00,73.8,33.7,29.99,NNE,23,4.0,-999.0,23,0.00,,,0.00,Wunderground v.1.15,2013-02-27 22:08:00,
2013-02-27 16:13:00,73.8,33.7,29.99,NNE,23,4.0,-999.0,23,0.00,,,0.00,Wunderground v.1.15,2013-02-27 22:13:00,
2013-02-27 16:18:00,71.5,37.6,30.00,NNE,23,4.0,-999.0,29,0.00,,,0.00,Wunderground v.1.15,2013-02-27 22:18:00,
2013-02-27 16:23:00,71.5,37.6,30.00,NNE,23,4.0,-999.0,29,0.00,,,0.00,Wunderground v.1.15,2013-02-27 22:23:00,
2013-02-27 16:28:00,71.5,37.6,30.00,NNE,23,4.0,-999.0,29,0.00,,,0.00,Wunderground v.1.15,2013-02-27 22:28:00,
2013-02-27 16:33:00,71.5,37.6,30.00,NNE,23,4.0,-999.0,29,0.00,,,0.00,Wunderground v.1.15,2013-02-27 22:33:00,
2013-02-27 16:38:00,71.5,37.6,30.00,NNE,23,4.0,-999.0,29,0.00,,,0.00,Wunderground v.1.15,2013-02-27 22:38:00,
2013-02-27 16:43:00,71.5,37.6,30.00,NNE,23,4.0,-999.0,29,0.00,,,0.00,Wunderground v.1.15,2013-02-27 22:43:00,
2013-02-27 16:48:00,70.6,37.6,30.00,NNE,23,4.0,-999.0,30,0.00,,,0.00,Wunderground v.1.15,2013-02-27 22:48:00,
2013-02-27 16:53:00,70.6,37.6,30.00,NNE,23,4.0,-999.0,30,0.00,,,0.00,Wunderground v.1.15,2013-02-27 22:53:00,
2013-02-27 16:58:00,70.6,37.6,30.00,NNE,23,4.0,-999.0,30,0.00,,,0.00,Wunderground v.1.15,2013-02-27 22:58:00,
2013-02-27 17:03:00,70.6,37.6,30.00,NNE,23,4.0,-999.0,30,0.00,,,0.00,Wunderground v.1.15,2013-02-27 23:03:00,
2013-02-27 17:08:00,70.6,37.6,30.00,NNE,23,4.0,-999.0,30,0.00,,,0.00,Wunderground v.1.15,2013-02-27 23:08:00,
2013-02-27 17:13:00,70.6,37.6,30.00,NNE,23,4.0,-999.0,30,0.00,,,0.00,Wunderground v.1.15,2013-02-27 23:13:00,
2013-02-27 17:18:00,70.1,37.2,30.02,NNE,23,4.0,-999.0,30,0.00,,,0.00,Wunderground v.1.15,2013-02-27 23:18:00,
2013-02-27 17:23:00,70.1,37.2,30.02,NNE,23,4.0,-999.0,30,0.00,,,0.00,Wunderground v.1.15,2013-02-27 23:23:00,
2013-02-27 17:28:00,70.1,37.2,30.02,NNE,23,4.0,-999.0,30,0.00,,,0.00,Wunderground v.1.15,2013-02-27 23:28:00,
2013-02-27 17:33:00,70.1,37.2,30.02,NNE,23,4.0,-999.0,30,0.00,,,0.00,Wunderground v.1.15,2013-02-27 23:33:00,
2013-02-27 17:38:00,70.1,37.2,30.02,NNE,23,4.0,-999.0,30,0.00,,,0.00,Wunderground v.1.15,2013-02-27 23:38:00,
2013-02-27 17:43:00,70.1,37.2,30.02,NNE,23,4.0,-999.0,30,0.00,,,0.00,Wunderground v.1.15,2013-02-27 23:43:00,
2013-02-27 17:48:00,67.9,39.9,30.02,NNE,23,3.0,-999.0,36,0.00,,,0.00,Wunderground v.1.15,2013-02-27 23:48:00,
2013-02-27 17:53:00,67.9,39.9,30.02,NNE,23,3.0,-999.0,36,0.00,,,0.00,Wunderground v.1.15,2013-02-27 23:53:00,
2013-02-27 17:58:00,67.9,39.9,30.02,NNE,23,3.0,-999.0,36,0.00,,,0.00,Wunderground v.1.15,2013-02-27 23:58:00,
2013-02-27 18:03:00,67.9,39.9,30.02,NNE,23,3.0,-999.0,36,0.00,,,0.00,Wunderground v.1.15,2013-02-28 00:03:00,
2013-02-27 18:08:00,67.9,39.9,30.02,NNE,23,3.0,-999.0,36,0.00,,,0.00,Wunderground v.1.15,2013-02-28 00:08:00,
2013-02-27 18:13:00,67.9,39.9,30.02,NNE,23,3.0,-999.0,36,0.00,,,0.00,Wunderground v.1.15,2013-02-28 00:13:00,
2013-02-27 18:18:00,65.9,41.5,30.04,NE,45,3.0,-999.0,41,0.00,,,0.00,Wunderground v.1.15,2013-02-28 00:18:00,
2013-02-27 18:23:00,65.9,41.5,30.04,NE,45,3.0,-999.0,41,0.00,,,0.00,Wunderground v.1.15,2013-02-28 00:23:00,
2013-02-27 18:28:00,65.9,41.5,30.04,NE,45,3.0,-999.0,41,0.00,,,0.00,Wunderground v.1.15,2013-02-28 00:28:00,
2013-02-27 18:33:00,65.9,41.5,30.04,NE,45,3.0,-999.0,41,0.00,,,0.00,Wunderground v.1.15,2013-02-28 00:33:00,
2013-02-27 18:38:00,65.9,41.5,30.04,NE,45,3.0,-999.0,41,0.00,,,0.00,Wunderground v.1.15,2013-02-28 00:38:00,
2013-02-27 18:43:00,65.9,41.5,30.04,NE,45,3.0,-999.0,41,0.00,,,0.00,Wunderground v.1.15,2013-02-28 00:43:00,
2013-02-27 18:48:00,64.4,43.2,30.06,NNE,23,2.0,-999.0,46,0.00,,,0.00,Wunderground v.1.15,2013-02-28 00:48:00,
2013-02-27 18:53:00,64.4,43.2,30.06,NNE,23,2.0,-999.0,46,0.00,,,0.00,Wunderground v.1.15,2013-02-28 00:53:00,
2013-02-27 18:58:00,64.4,43.2,30.06,NNE,23,2.0,-999.0,46,0.00,,,0.00,Wunderground v.1.15,2013-02-28 00:58:00,
2013-02-27 19:03:00,64.4,43.2,30.06,NNE,23,2.0,-999.0,46,0.00,,,0.00,Wunderground v.1.15,2013-02-28 01:03:00,
2013-02-27 19:08:00,64.4,43.2,30.06,NNE,23,2.0,-999.0,46,0.00,,,0.00,Wunderground v.1.15,2013-02-28 01:08:00,
2013-02-27 19:13:00,64.4,43.2,30.06,NNE,23,2.0,-999.0,46,0.00,,,0.00,Wunderground v.1.15,2013-02-28 01:13:00,
2013-02-27 19:18:00,63.7,42.5,30.08,NNE,23,2.0,-999.0,46,0.00,,,0.00,Wunderground v.1.15,2013-02-28 01:18:00,
2013-02-27 19:23:00,63.7,42.5,30.08,NNE,23,2.0,-999.0,46,0.00,,,0.00,Wunderground v.1.15,2013-02-28 01:23:00,
2013-02-27 19:28:00,63.7,42.5,30.08,NNE,23,2.0,-999.0,46,0.00,,,0.00,Wunderground v.1.15,2013-02-28 01:28:00,
2013-02-27 19:33:00,63.7,42.5,30.08,NNE,23,2.0,-999.0,46,0.00,,,0.00,Wunderground v.1.15,2013-02-28 01:33:00,
2013-02-27 19:38:00,63.7,42.5,30.08,NNE,23,2.0,-999.0,46,0.00,,,0.00,Wunderground v.1.15,2013-02-28 01:38:00,
2013-02-27 19:43:00,63.7,42.5,30.08,NNE,23,2.0,-999.0,46,0.00,,,0.00,Wunderground v.1.15,2013-02-28 01:43:00,
2013-02-27 19:48:00,62.6,42.6,30.09,NNE,23,2.0,-999.0,48,0.00,,,0.00,Wunderground v.1.15,2013-02-28 01:48:00,
2013-02-27 19:53:00,62.6,42.6,30.09,NNE,23,2.0,-999.0,48,0.00,,,0.00,Wunderground v.1.15,2013-02-28 01:53:00,
2013-02-27 19:58:00,62.6,42.6,30.09,NNE,23,2.0,-999.0,48,0.00,,,0.00,Wunderground v.1.15,2013-02-28 01:58:00,
2013-02-27 20:03:00,62.6,42.6,30.09,NNE,23,2.0,-999.0,48,0.00,,,0.00,Wunderground v.1.15,2013-02-28 02:03:00,
2013-02-27 20:08:00,62.6,42.6,30.09,NNE,23,2.0,-999.0,48,0.00,,,0.00,Wunderground v.1.15,2013-02-28 02:08:00,
2013-02-27 20:13:00,62.6,42.6,30.09,NNE,23,2.0,-999.0,48,0.00,,,0.00,Wunderground v.1.15,2013-02-28 02:13:00,
2013-02-27 20:18:00,61.7,40.7,30.10,NNE,23,1.0,-999.0,46,0.00,,,0.00,Wunderground v.1.15,2013-02-28 02:18:00,
2013-02-27 20:23:00,61.7,40.7,30.10,NNE,23,1.0,-999.0,46,0.00,,,0.00,Wunderground v.1.15,2013-02-28 02:23:00,
2013-02-27 20:28:00,61.7,40.7,30.10,NNE,23,1.0,-999.0,46,0.00,,,0.00,Wunderground v.1.15,2013-02-28 02:28:00,
2013-02-27 20:33:00,61.7,40.7,30.10,NNE,23,1.0,-999.0,46,0.00,,,0.00,Wunderground v.1.15,2013-02-28 02:33:00,
2013-02-27 20:38:00,61.7,40.7,30.10,NNE,23,1.0,-999.0,46,0.00,,,0.00,Wunderground v.1.15,2013-02-28 02:38:00,
2013-02-27 20:43:00,61.7,40.7,30.10,NNE,23,1.0,-999.0,46,0.00,,,0.00,Wunderground v.1.15,2013-02-28 02:43:00,
2013-02-27 20:48:00,61.0,40.1,30.12,NNE,23,1.0,-999.0,46,0.00,,,0.00,Wunderground v.1.15,2013-02-28 02:48:00,
2013-02-27 20:53:00,61.0,40.1,30.12,NNE,23,1.0,-999.0,46,0.00,,,0.00,Wunderground v.1.15,2013-02-28 02:53:00,
2013-02-27 20:58:00,61.0,40.1,30.12,NNE,23,1.0,-999.0,46,0.00,,,0.00,Wunderground v.1.15,2013-02-28 02:58:00,
2013-02-27 21:03:00,61.0,40.1,30.12,NNE,23,1.0,-999.0,46,0.00,,,0.00,Wunderground v.1.15,2013-02-28 03:03:00,
2013-02-27 21:08:00,61.0,40.1,30.12,NNE,23,1.0,-999.0,46,0.00,,,0.00,Wunderground v.1.15,2013-02-28 03:08:00,
2013-02-27 21:13:00,61.0,40.1,30.12,NNE,23,1.0,-999.0,46,0.00,,,0.00,Wunderground v.1.15,2013-02-28 03:13:00,
2013-02-27 21:18:00,60.5,41.2,30.13,NNE,23,1.0,-999.0,49,0.00,,,0.00,Wunderground v.1.15,2013-02-28 03:18:00,
2013-02-27 21:23:00,60.5,41.2,30.13,NNE,23,1.0,-999.0,49,0.00,,,0.00,Wunderground v.1.15,2013-02-28 03:23:00,
2013-02-27 21:28:00,60.5,41.2,30.13,NNE,23,1.0,-999.0,49,0.00,,,0.00,Wunderground v.1.15,2013-02-28 03:28:00,
2013-02-27 21:33:00,60.5,41.2,30.13,NNE,23,1.0,-999.0,49,0.00,,,0.00,Wunderground v.1.15,2013-02-28 03:33:00,
2013-02-27 21:38:00,60.5,41.2,30.13,NNE,23,1.0,-999.0,49,0.00,,,0.00,Wunderground v.1.15,2013-02-28 03:38:00,
2013-02-27 21:43:00,60.5,41.2,30.13,NNE,23,1.0,-999.0,49,0.00,,,0.00,Wunderground v.1.15,2013-02-28 03:43:00,
2013-02-27 21:48:00,60.2,41.0,30.14,NNE,23,2.0,-999.0,49,0.00,,,0.00,Wunderground v.1.15,2013-02-28 03:48:00,
2013-02-27 21:53:00,60.2,41.0,30.14,NNE,23,2.0,-999.0,49,0.00,,,0.00,Wunderground v.1.15,2013-02-28 03:53:00,
2013-02-27 21:58:00,60.2,41.0,30.14,NNE,23,2.0,-999.0,49,0.00,,,0.00,Wunderground v.1.15,2013-02-28 03:58:00,
2013-02-27 22:03:00,60.2,41.0,30.14,NNE,23,2.0,-999.0,49,0.00,,,0.00,Wunderground v.1.15,2013-02-28 04:03:00,
2013-02-27 22:08:00,60.2,41.0,30.14,NNE,23,2.0,-999.0,49,0.00,,,0.00,Wunderground v.1.15,2013-02-28 04:08:00,
2013-02-27 22:13:00,60.2,41.0,30.14,NNE,23,2.0,-999.0,49,0.00,,,0.00,Wunderground v.1.15,2013-02-28 04:13:00,
2013-02-27 22:18:00,59.4,38.6,30.15,NE,45,3.0,-999.0,46,0.00,,,0.00,Wunderground v.1.15,2013-02-28 04:18:00,
2013-02-27 22:23:00,59.4,38.6,30.15,NE,45,3.0,-999.0,46,0.00,,,0.00,Wunderground v.1.15,2013-02-28 04:23:00,
2013-02-27 22:28:00,59.4,38.6,30.15,NE,45,3.0,-999.0,46,0.00,,,0.00,Wunderground v.1.15,2013-02-28 04:28:00,
2013-02-27 22:33:00,59.4,38.6,30.15,NE,45,3.0,-999.0,46,0.00,,,0.00,Wunderground v.1.15,2013-02-28 04:33:00,
2013-02-27 22:38:00,59.4,38.6,30.15,NE,45,3.0,-999.0,46,0.00,,,0.00,Wunderground v.1.15,2013-02-28 04:38:00,
2013-02-27 22:43:00,59.4,38.6,30.15,NE,45,3.0,-999.0,46,0.00,,,0.00,Wunderground v.1.15,2013-02-28 04:43:00,
2013-02-27 22:48:00,58.9,39.2,30.15,NE,45,3.0,-999.0,48,0.00,,,0.00,Wunderground v.1.15,2013-02-28 04:48:00,
2013-02-27 22:53:00,58.9,39.2,30.15,NE,45,3.0,-999.0,48,0.00,,,0.00,Wunderground v.1.15,2013-02-28 04:53:00,
2013-02-27 22:58:00,58.9,39.2,30.15,NE,45,3.0,-999.0,48,0.00,,,0.00,Wunderground v.1.15,2013-02-28 04:58:00,
2013-02-27 23:03:00,58.9,39.2,30.15,NE,45,3.0,-999.0,48,0.00,,,0.00,Wunderground v.1.15,2013-02-28 05:03:00,
2013-02-27 23:08:00,58.9,39.2,30.15,NE,45,3.0,-999.0,48,0.00,,,0.00,Wunderground v.1.15,2013-02-28 05:08:00,
2013-02-27 23:13:00,58.9,39.2,30.15,NE,45,3.0,-999.0,48,0.00,,,0.00,Wunderground v.1.15,2013-02-28 05:13:00,
2013-02-27 23:18:00,57.9,38.8,30.15,NNE,23,2.0,-999.0,49,0.00,,,0.00,Wunderground v.1.15,2013-02-28 05:18:00,
2013-02-27 23:23:00,57.9,38.8,30.15,NNE,23,2.0,-999.0,49,0.00,,,0.00,Wunderground v.1.15,2013-02-28 05:23:00,
2013-02-27 23:28:00,57.9,38.8,30.15,NNE,23,2.0,-999.0,49,0.00,,,0.00,Wunderground v.1.15,2013-02-28 05:28:00,
2013-02-27 23:33:00,57.9,38.8,30.15,NNE,23,2.0,-999.0,49,0.00,,,0.00,Wunderground v.1.15,2013-02-28 05:33:00,
2013-02-27 23:38:00,57.9,38.8,30.15,NNE,23,2.0,-999.0,49,0.00,,,0.00,Wunderground v.1.15,2013-02-28 05:38:00,
2013-02-27 23:43:00,57.9,38.8,30.15,NNE,23,2.0,-999.0,49,0.00,,,0.00,Wunderground v.1.15,2013-02-28 05:43:00,
2013-02-27 23:48:00,57.2,38.2,30.15,NE,45,3.0,-999.0,49,0.00,,,0.00,Wunderground v.1.15,2013-02-28 05:48:00,
2013-02-27 23:53:00,57.2,38.2,30.15,NE,45,3.0,-999.0,49,0.00,,,0.00,Wunderground v.1.15,2013-02-28 05:53:00,
2013-02-27 23:58:00,57.2,38.2,30.15,NE,45,3.0,-999.0,49,0.00,,,0.00,Wunderground v.1.15,2013-02-28 05:58:00,